contact:dominique.lefevre@mio.osupytheas.fr, maurice.libes@osupytheas.fr, didier.mallarino@osupytheas.fr
Project:EMSO http://www.emso-fr.org/EMSO-France
Depth: 2436.0 m
Title:EMSO Ligure Ouest : Data MII capteur MICROCAT
DateTime_Computer,Latitude,Longitude,Temperature,Conductivity,Pressure,DateTime_Instrument
DateTime_Computer,Latitude,Longitude,degC,S m-1,dbar,DateTime_Instrument
2020-10-01T00:01:46Z,42.805,6.029,13.2983,4.60012,2470.063,2020-10-01T02:02:39Z
2020-10-01T00:04:49Z,42.805,6.029,13.2983,4.59998,2470.077,2020-10-01T02:05:42Z
2020-10-01T00:07:52Z,42.805,6.029,13.2982,4.59996,2470.053,2020-10-01T02:08:45Z
2020-10-01T00:10:55Z,42.805,6.029,13.2983,4.59991,2470.077,2020-10-01T02:11:48Z
2020-10-01T00:13:58Z,42.805,6.029,13.2989,4.60001,2470.053,2020-10-01T02:14:51Z
2020-10-01T00:17:02Z,42.805,6.029,13.2985,4.60000,2470.063,2020-10-01T02:17:54Z
2020-10-01T00:20:05Z,42.805,6.029,13.2983,4.59991,2470.053,2020-10-01T02:20:58Z
2020-10-01T00:23:08Z,42.805,6.029,13.2981,4.59991,2470.04,2020-10-01T02:24:01Z
2020-10-01T00:26:11Z,42.805,6.029,13.2984,4.59988,2470.04,2020-10-01T02:27:04Z
2020-10-01T00:29:14Z,42.805,6.029,13.2986,4.59999,2470.077,2020-10-01T02:30:07Z
2020-10-01T00:32:17Z,42.805,6.029,13.2980,4.59996,2470.053,2020-10-01T02:33:10Z
2020-10-01T00:35:20Z,42.805,6.029,13.2982,4.60009,2470.04,2020-10-01T02:36:13Z
2020-10-01T00:38:23Z,42.805,6.029,13.2983,4.59995,2470.04,2020-10-01T02:39:16Z
2020-10-01T00:41:26Z,42.805,6.029,13.2983,4.60007,2470.063,2020-10-01T02:42:19Z
2020-10-01T00:44:30Z,42.805,6.029,13.2983,4.60008,2470.053,2020-10-01T02:45:23Z
2020-10-01T00:47:33Z,42.805,6.029,13.2987,4.59996,2470.04,2020-10-01T02:48:26Z
2020-10-01T00:50:36Z,42.805,6.029,13.2988,4.59994,2470.04,2020-10-01T02:51:29Z
2020-10-01T00:53:39Z,42.805,6.029,13.2983,4.59991,2470.03,2020-10-01T02:54:32Z
2020-10-01T00:56:42Z,42.805,6.029,13.2983,4.59993,2470.03,2020-10-01T02:57:35Z
2020-10-01T00:59:45Z,42.805,6.029,13.2980,4.59991,2470.04,2020-10-01T03:00:38Z
2020-10-01T01:02:48Z,42.805,6.029,13.2984,4.59996,2470.04,2020-10-01T03:03:41Z
2020-10-01T01:05:51Z,42.805,6.029,13.2993,4.60009,2470.053,2020-10-01T03:06:44Z
2020-10-01T01:08:55Z,42.805,6.029,13.2994,4.60009,2470.04,2020-10-01T03:09:47Z
2020-10-01T01:11:58Z,42.805,6.029,13.2983,4.59995,2470.04,2020-10-01T03:12:51Z
2020-10-01T01:15:01Z,42.805,6.029,13.2990,4.59994,2470.04,2020-10-01T03:15:54Z
2020-10-01T01:18:04Z,42.805,6.029,13.2982,4.59996,2470.03,2020-10-01T03:18:57Z
2020-10-01T01:21:07Z,42.805,6.029,13.2980,4.59994,2470.03,2020-10-01T03:22:00Z
2020-10-01T01:24:10Z,42.805,6.029,13.2982,4.60003,2470.017,2020-10-01T03:25:03Z
2020-10-01T01:27:13Z,42.805,6.029,13.2985,4.60005,2470.04,2020-10-01T03:28:06Z
2020-10-01T01:30:16Z,42.805,6.029,13.2982,4.59997,2470.017,2020-10-01T03:31:09Z
2020-10-01T01:33:19Z,42.805,6.029,13.2983,4.59994,2470.03,2020-10-01T03:34:12Z
2020-10-01T01:36:23Z,42.805,6.029,13.3001,4.59999,2470.053,2020-10-01T03:37:15Z
2020-10-01T01:39:26Z,42.805,6.029,13.2989,4.60003,2470.04,2020-10-01T03:40:19Z
2020-10-01T01:42:29Z,42.805,6.029,13.2984,4.59999,2470.04,2020-10-01T03:43:22Z
2020-10-01T01:45:32Z,42.805,6.029,13.2990,4.60015,2469.993,2020-10-01T03:46:25Z
2020-10-01T01:48:35Z,42.805,6.029,13.2991,4.60011,2470.053,2020-10-01T03:49:28Z
2020-10-01T01:51:38Z,42.805,6.029,13.2992,4.60003,2470.017,2020-10-01T03:52:31Z
2020-10-01T01:54:41Z,42.805,6.029,13.2988,4.60016,2470.03,2020-10-01T03:55:34Z
2020-10-01T01:57:44Z,42.805,6.029,13.2989,4.60004,2469.993,2020-10-01T03:58:37Z
2020-10-01T02:00:48Z,42.805,6.029,13.2986,4.60003,2470.04,2020-10-01T04:01:40Z
2020-10-01T02:03:51Z,42.805,6.029,13.2983,4.60003,2470.04,2020-10-01T04:04:44Z
2020-10-01T02:06:54Z,42.805,6.029,13.2991,4.60017,2470.04,2020-10-01T04:07:47Z
2020-10-01T02:09:57Z,42.805,6.029,13.2996,4.60014,2470.03,2020-10-01T04:10:50Z
2020-10-01T02:13:00Z,42.805,6.029,13.2983,4.60022,2470.053,2020-10-01T04:13:53Z
2020-10-01T02:16:03Z,42.805,6.029,13.2983,4.60014,2470.017,2020-10-01T04:16:56Z
2020-10-01T02:19:06Z,42.805,6.029,13.2993,4.60014,2470.04,2020-10-01T04:19:59Z
2020-10-01T02:22:09Z,42.805,6.029,13.2979,4.60017,2470.053,2020-10-01T04:23:02Z
2020-10-01T02:25:12Z,42.805,6.029,13.2992,4.60019,2470.03,2020-10-01T04:26:05Z
2020-10-01T02:28:16Z,42.805,6.029,13.2985,4.59992,2469.993,2020-10-01T04:29:08Z
2020-10-01T02:31:19Z,42.805,6.029,13.2981,4.59991,2470.053,2020-10-01T04:32:12Z
2020-10-01T02:34:22Z,42.805,6.029,13.2990,4.59997,2470.017,2020-10-01T04:35:15Z
2020-10-01T02:37:25Z,42.805,6.029,13.2989,4.60003,2470.053,2020-10-01T04:38:18Z
2020-10-01T02:40:28Z,42.805,6.029,13.2982,4.59999,2469.993,2020-10-01T04:41:21Z
2020-10-01T02:43:31Z,42.805,6.029,13.2999,4.60003,2470.017,2020-10-01T04:44:24Z
2020-10-01T02:46:34Z,42.805,6.029,13.2996,4.60023,2470.04,2020-10-01T04:47:27Z
2020-10-01T02:49:37Z,42.805,6.029,13.2996,4.60028,2470.04,2020-10-01T04:50:30Z
2020-10-01T02:52:41Z,42.805,6.029,13.2992,4.60013,2470.017,2020-10-01T04:53:33Z
2020-10-01T02:55:44Z,42.805,6.029,13.2991,4.60022,2469.993,2020-10-01T04:56:37Z
2020-10-01T02:58:47Z,42.805,6.029,13.2989,4.60035,2470.03,2020-10-01T04:59:40Z
2020-10-01T03:01:50Z,42.805,6.029,13.2994,4.60026,2470.04,2020-10-01T05:02:43Z
2020-10-01T03:04:53Z,42.805,6.029,13.2991,4.60029,2470.053,2020-10-01T05:05:46Z
2020-10-01T03:07:56Z,42.805,6.029,13.2993,4.60026,2470.03,2020-10-01T05:08:49Z
2020-10-01T03:10:59Z,42.805,6.029,13.2979,4.59996,2470.017,2020-10-01T05:11:52Z
2020-10-01T03:14:02Z,42.805,6.029,13.2987,4.60021,2470.077,2020-10-01T05:14:55Z
2020-10-01T03:17:05Z,42.805,6.029,13.2999,4.60011,2470.077,2020-10-01T05:17:58Z
2020-10-01T03:20:09Z,42.805,6.029,13.2996,4.60024,2470.04,2020-10-01T05:21:01Z
2020-10-01T03:23:12Z,42.805,6.029,13.2998,4.60010,2470.04,2020-10-01T05:24:05Z
2020-10-01T03:26:15Z,42.805,6.029,13.2987,4.60008,2470.063,2020-10-01T05:27:08Z
2020-10-01T03:29:18Z,42.805,6.029,13.2991,4.60016,2470.04,2020-10-01T05:30:11Z
2020-10-01T03:32:21Z,42.805,6.029,13.2989,4.60002,2470.053,2020-10-01T05:33:14Z
2020-10-01T03:35:24Z,42.805,6.029,13.2987,4.60005,2470.053,2020-10-01T05:36:17Z
2020-10-01T03:38:27Z,42.805,6.029,13.2988,4.60019,2470.1,2020-10-01T05:39:20Z
2020-10-01T03:41:30Z,42.805,6.029,13.3000,4.60022,2470.087,2020-10-01T05:42:23Z
2020-10-01T03:44:33Z,42.805,6.029,13.2995,4.60023,2470.077,2020-10-01T05:45:26Z
2020-10-01T03:47:37Z,42.805,6.029,13.2985,4.60029,2470.063,2020-10-01T05:48:30Z
2020-10-01T03:50:40Z,42.805,6.029,13.3003,4.60016,2470.087,2020-10-01T05:51:33Z
2020-10-01T03:53:43Z,42.805,6.029,13.2997,4.60026,2470.087,2020-10-01T05:54:36Z
2020-10-01T03:56:46Z,42.805,6.029,13.2991,4.60017,2470.077,2020-10-01T05:57:39Z
2020-10-01T03:59:49Z,42.805,6.029,13.3001,4.60027,2470.1,2020-10-01T06:00:42Z
2020-10-01T04:02:52Z,42.805,6.029,13.2998,4.60027,2470.1,2020-10-01T06:03:45Z
2020-10-01T04:05:55Z,42.805,6.029,13.3000,4.60033,2470.11,2020-10-01T06:06:48Z
2020-10-01T04:08:58Z,42.805,6.029,13.3002,4.60042,2470.087,2020-10-01T06:09:51Z
2020-10-01T04:12:02Z,42.805,6.029,13.3003,4.60048,2470.087,2020-10-01T06:12:54Z
2020-10-01T04:15:05Z,42.805,6.029,13.3009,4.60043,2470.124,2020-10-01T06:15:58Z
2020-10-01T04:18:08Z,42.805,6.029,13.3017,4.60035,2470.1,2020-10-01T06:19:01Z
2020-10-01T04:21:11Z,42.805,6.029,13.3013,4.60041,2470.1,2020-10-01T06:22:04Z
2020-10-01T04:24:14Z,42.805,6.029,13.3007,4.60044,2470.11,2020-10-01T06:25:07Z
2020-10-01T04:27:17Z,42.805,6.029,13.2998,4.60037,2470.124,2020-10-01T06:28:10Z
2020-10-01T04:30:20Z,42.805,6.029,13.3022,4.60029,2470.124,2020-10-01T06:31:13Z
2020-10-01T04:33:23Z,42.805,6.029,13.3006,4.60035,2470.124,2020-10-01T06:34:16Z
2020-10-01T04:36:26Z,42.805,6.029,13.3021,4.60055,2470.11,2020-10-01T06:37:19Z
2020-10-01T04:39:30Z,42.805,6.029,13.3021,4.60054,2470.11,2020-10-01T06:40:23Z
2020-10-01T04:42:33Z,42.805,6.029,13.3019,4.60046,2470.11,2020-10-01T06:43:26Z
2020-10-01T04:45:36Z,42.805,6.029,13.3014,4.60054,2470.11,2020-10-01T06:46:29Z
2020-10-01T04:48:39Z,42.805,6.029,13.3004,4.60035,2470.11,2020-10-01T06:49:32Z
2020-10-01T04:51:42Z,42.805,6.029,13.3000,4.60033,2470.11,2020-10-01T06:52:35Z
2020-10-01T04:54:45Z,42.805,6.029,13.2998,4.60036,2470.11,2020-10-01T06:55:38Z
2020-10-01T04:57:48Z,42.805,6.029,13.3005,4.60021,2470.133,2020-10-01T06:58:41Z
2020-10-01T05:00:51Z,42.805,6.029,13.3000,4.60038,2470.11,2020-10-01T07:01:44Z
2020-10-01T05:03:55Z,42.805,6.029,13.3001,4.60033,2470.11,2020-10-01T07:04:47Z
2020-10-01T05:06:58Z,42.805,6.029,13.3018,4.60036,2470.133,2020-10-01T07:07:51Z
2020-10-01T05:10:01Z,42.805,6.029,13.3009,4.60034,2470.133,2020-10-01T07:10:54Z
2020-10-01T05:13:04Z,42.805,6.029,13.3008,4.60041,2470.133,2020-10-01T07:13:57Z
2020-10-01T05:16:07Z,42.805,6.029,13.2996,4.60034,2470.147,2020-10-01T07:17:00Z
2020-10-01T05:19:10Z,42.805,6.029,13.3006,4.60009,2470.156,2020-10-01T07:20:03Z
2020-10-01T05:22:13Z,42.805,6.029,13.3019,4.60034,2470.124,2020-10-01T07:23:06Z
2020-10-01T05:25:16Z,42.805,6.029,13.3010,4.60039,2470.133,2020-10-01T07:26:09Z
2020-10-01T05:28:20Z,42.805,6.029,13.2991,4.60036,2470.133,2020-10-01T07:29:12Z
2020-10-01T05:31:23Z,42.805,6.029,13.3021,4.60044,2470.156,2020-10-01T07:32:16Z
2020-10-01T05:34:26Z,42.805,6.029,13.3008,4.60052,2470.133,2020-10-01T07:35:19Z
2020-10-01T05:37:29Z,42.805,6.029,13.2990,4.60046,2470.156,2020-10-01T07:38:22Z
2020-10-01T05:40:32Z,42.805,6.029,13.2993,4.60019,2470.133,2020-10-01T07:41:25Z
2020-10-01T05:43:35Z,42.805,6.029,13.2993,4.60027,2470.156,2020-10-01T07:44:28Z
2020-10-01T05:46:38Z,42.805,6.029,13.2985,4.60011,2470.171,2020-10-01T07:47:31Z
2020-10-01T05:49:41Z,42.805,6.029,13.3000,4.60014,2470.11,2020-10-01T07:50:34Z
2020-10-01T05:52:44Z,42.805,6.029,13.3006,4.60030,2470.194,2020-10-01T07:53:37Z
2020-10-01T05:55:48Z,42.805,6.029,13.3006,4.60028,2470.156,2020-10-01T07:56:40Z
2020-10-01T05:58:51Z,42.805,6.029,13.2999,4.60003,2470.194,2020-10-01T07:59:44Z
2020-10-01T06:01:54Z,42.805,6.029,13.2998,4.60021,2470.156,2020-10-01T08:02:47Z
2020-10-01T06:04:57Z,42.805,6.029,13.2991,4.60023,2470.171,2020-10-01T08:05:50Z
2020-10-01T06:08:00Z,42.805,6.029,13.2991,4.60029,2470.133,2020-10-01T08:08:53Z
2020-10-01T06:11:03Z,42.805,6.029,13.2990,4.60032,2470.133,2020-10-01T08:11:56Z
2020-10-01T06:14:06Z,42.805,6.029,13.2983,4.60009,2470.194,2020-10-01T08:14:59Z
2020-10-01T06:17:09Z,42.805,6.029,13.2986,4.60012,2470.133,2020-10-01T08:18:02Z
2020-10-01T06:20:13Z,42.805,6.029,13.3000,4.60010,2470.194,2020-10-01T08:21:05Z
2020-10-01T06:23:16Z,42.805,6.029,13.2993,4.60033,2470.171,2020-10-01T08:24:09Z
2020-10-01T06:26:19Z,42.805,6.029,13.2998,4.60025,2470.156,2020-10-01T08:27:12Z
2020-10-01T06:29:22Z,42.805,6.029,13.2982,4.60004,2470.194,2020-10-01T08:30:15Z
2020-10-01T06:32:25Z,42.805,6.029,13.2984,4.59994,2470.156,2020-10-01T08:33:18Z
2020-10-01T06:35:28Z,42.805,6.029,13.2986,4.60013,2470.217,2020-10-01T08:36:21Z
2020-10-01T06:38:31Z,42.805,6.029,13.2990,4.60004,2470.171,2020-10-01T08:39:24Z
2020-10-01T06:41:34Z,42.805,6.029,13.2980,4.59997,2470.18,2020-10-01T08:42:27Z
2020-10-01T06:44:37Z,42.805,6.029,13.2982,4.59998,2470.133,2020-10-01T08:45:30Z
2020-10-01T06:47:41Z,42.805,6.029,13.2988,4.60001,2470.156,2020-10-01T08:48:33Z
2020-10-01T06:50:44Z,42.805,6.029,13.2983,4.60003,2470.156,2020-10-01T08:51:37Z
2020-10-01T06:53:47Z,42.805,6.029,13.2980,4.59998,2470.18,2020-10-01T08:54:40Z
2020-10-01T06:56:50Z,42.805,6.029,13.2983,4.60002,2470.194,2020-10-01T08:57:43Z
2020-10-01T06:59:53Z,42.805,6.029,13.2992,4.59997,2470.18,2020-10-01T09:00:46Z
2020-10-01T07:02:56Z,42.805,6.029,13.2988,4.60024,2470.194,2020-10-01T09:03:49Z
2020-10-01T07:05:59Z,42.805,6.029,13.2990,4.60038,2470.171,2020-10-01T09:06:52Z
2020-10-01T07:09:02Z,42.805,6.029,13.3001,4.59996,2470.18,2020-10-01T09:09:55Z
2020-10-01T07:12:06Z,42.805,6.029,13.2982,4.60014,2470.156,2020-10-01T09:12:58Z
2020-10-01T07:15:09Z,42.805,6.029,13.2998,4.60021,2470.171,2020-10-01T09:16:02Z
2020-10-01T07:18:12Z,42.805,6.029,13.2994,4.60033,2470.156,2020-10-01T09:19:05Z
2020-10-01T07:21:15Z,42.805,6.029,13.2979,4.60001,2470.194,2020-10-01T09:22:08Z
2020-10-01T07:24:18Z,42.805,6.029,13.2976,4.60006,2470.156,2020-10-01T09:25:11Z
2020-10-01T07:27:21Z,42.805,6.029,13.2981,4.59995,2470.156,2020-10-01T09:28:14Z
2020-10-01T07:30:24Z,42.805,6.029,13.2976,4.60023,2470.203,2020-10-01T09:31:17Z
2020-10-01T07:33:27Z,42.805,6.029,13.2990,4.60027,2470.18,2020-10-01T09:34:20Z
2020-10-01T07:36:30Z,42.805,6.029,13.2986,4.60018,2470.194,2020-10-01T09:37:23Z
2020-10-01T07:39:34Z,42.805,6.029,13.2989,4.60021,2470.133,2020-10-01T09:40:27Z
2020-10-01T07:42:37Z,42.805,6.029,13.2984,4.60032,2470.194,2020-10-01T09:43:30Z
2020-10-01T07:45:40Z,42.805,6.029,13.2986,4.60012,2470.171,2020-10-01T09:46:33Z
2020-10-01T07:48:43Z,42.805,6.029,13.2984,4.60019,2470.156,2020-10-01T09:49:36Z
2020-10-01T07:51:46Z,42.805,6.029,13.2999,4.60042,2470.18,2020-10-01T09:52:39Z
2020-10-01T07:54:49Z,42.805,6.029,13.2997,4.60023,2470.156,2020-10-01T09:55:42Z
2020-10-01T07:57:52Z,42.805,6.029,13.2998,4.60007,2470.147,2020-10-01T09:58:45Z
2020-10-01T08:00:55Z,42.805,6.029,13.2982,4.60009,2470.147,2020-10-01T10:01:48Z
2020-10-01T08:03:59Z,42.805,6.029,13.2991,4.60041,2470.171,2020-10-01T10:04:51Z
2020-10-01T08:07:02Z,42.805,6.029,13.2991,4.60033,2470.171,2020-10-01T10:07:55Z
2020-10-01T08:10:05Z,42.805,6.029,13.2990,4.60036,2470.133,2020-10-01T10:10:58Z
2020-10-01T08:13:08Z,42.805,6.029,13.2985,4.60006,2470.133,2020-10-01T10:14:01Z
2020-10-01T08:16:11Z,42.805,6.029,13.2982,4.60029,2470.133,2020-10-01T10:17:04Z
2020-10-01T08:19:14Z,42.805,6.029,13.2985,4.60026,2470.171,2020-10-01T10:20:07Z
2020-10-01T08:22:17Z,42.805,6.029,13.2998,4.60023,2470.124,2020-10-01T10:23:10Z
2020-10-01T08:25:20Z,42.805,6.029,13.2992,4.60029,2470.171,2020-10-01T10:26:13Z
2020-10-01T08:28:24Z,42.805,6.029,13.2996,4.60019,2470.133,2020-10-01T10:29:16Z
2020-10-01T08:31:27Z,42.805,6.029,13.2992,4.60026,2470.194,2020-10-01T10:32:20Z
2020-10-01T08:34:30Z,42.805,6.029,13.2980,4.59997,2470.171,2020-10-01T10:35:23Z
2020-10-01T08:37:33Z,42.805,6.029,13.2990,4.60026,2470.133,2020-10-01T10:38:26Z
2020-10-01T08:40:36Z,42.805,6.029,13.2988,4.60021,2470.133,2020-10-01T10:41:29Z
2020-10-01T08:43:39Z,42.805,6.029,13.2983,4.60007,2470.156,2020-10-01T10:44:32Z
2020-10-01T08:46:42Z,42.805,6.029,13.2992,4.60026,2470.156,2020-10-01T10:47:35Z
2020-10-01T08:49:45Z,42.805,6.029,13.2986,4.60014,2470.087,2020-10-01T10:50:38Z
2020-10-01T08:52:49Z,42.805,6.029,13.2982,4.60011,2470.147,2020-10-01T10:53:41Z
2020-10-01T08:55:52Z,42.805,6.029,13.2985,4.60037,2470.133,2020-10-01T10:56:45Z
2020-10-01T08:58:55Z,42.805,6.029,13.2996,4.60020,2470.11,2020-10-01T10:59:48Z
2020-10-01T09:01:58Z,42.805,6.029,13.2983,4.60014,2470.156,2020-10-01T11:02:51Z
2020-10-01T09:05:01Z,42.805,6.029,13.2985,4.60012,2470.133,2020-10-01T11:05:54Z
2020-10-01T09:08:04Z,42.805,6.029,13.2985,4.60011,2470.147,2020-10-01T11:08:57Z
2020-10-01T09:11:07Z,42.805,6.029,13.2985,4.60002,2470.133,2020-10-01T11:12:00Z
2020-10-01T09:14:10Z,42.805,6.029,13.2983,4.60009,2470.11,2020-10-01T11:15:03Z
2020-10-01T09:17:14Z,42.805,6.029,13.2987,4.60014,2470.133,2020-10-01T11:18:06Z
2020-10-01T09:20:17Z,42.805,6.029,13.2989,4.60009,2470.124,2020-10-01T11:21:10Z
2020-10-01T09:23:20Z,42.805,6.029,13.2987,4.60009,2470.11,2020-10-01T11:24:13Z
2020-10-01T09:26:23Z,42.805,6.029,13.2986,4.60009,2470.124,2020-10-01T11:27:16Z
2020-10-01T09:29:26Z,42.805,6.029,13.2992,4.60020,2470.11,2020-10-01T11:30:19Z
2020-10-01T09:32:29Z,42.805,6.029,13.2986,4.60006,2470.124,2020-10-01T11:33:22Z
2020-10-01T09:35:32Z,42.805,6.029,13.2979,4.60009,2470.124,2020-10-01T11:36:25Z
2020-10-01T09:38:35Z,42.805,6.029,13.2982,4.60004,2470.087,2020-10-01T11:39:28Z
2020-10-01T09:41:39Z,42.805,6.029,13.2984,4.60024,2470.147,2020-10-01T11:42:31Z
2020-10-01T09:44:42Z,42.805,6.029,13.2982,4.60014,2470.1,2020-10-01T11:45:35Z
2020-10-01T09:47:45Z,42.805,6.029,13.2984,4.60021,2470.087,2020-10-01T11:48:38Z
2020-10-01T09:50:48Z,42.805,6.029,13.2990,4.60014,2470.133,2020-10-01T11:51:41Z
2020-10-01T09:53:51Z,42.805,6.029,13.2991,4.59999,2470.1,2020-10-01T11:54:44Z
2020-10-01T09:56:54Z,42.805,6.029,13.2982,4.60009,2470.087,2020-10-01T11:57:47Z
2020-10-01T09:59:57Z,42.805,6.029,13.2983,4.60010,2470.11,2020-10-01T12:00:50Z
2020-10-01T10:03:00Z,42.805,6.029,13.2988,4.60015,2470.11,2020-10-01T12:03:53Z
2020-10-01T10:06:03Z,42.805,6.029,13.2980,4.60006,2470.1,2020-10-01T12:06:56Z
2020-10-01T10:09:07Z,42.805,6.029,13.2989,4.60016,2470.087,2020-10-01T12:10:00Z
2020-10-01T10:12:10Z,42.805,6.029,13.2986,4.59999,2470.077,2020-10-01T12:13:03Z
2020-10-01T10:15:13Z,42.805,6.029,13.2983,4.59997,2470.077,2020-10-01T12:16:06Z
2020-10-01T10:18:16Z,42.805,6.029,13.2981,4.60003,2470.087,2020-10-01T12:19:09Z
2020-10-01T10:21:19Z,42.805,6.029,13.2991,4.60014,2470.087,2020-10-01T12:22:12Z
2020-10-01T10:24:22Z,42.805,6.029,13.2990,4.60005,2470.1,2020-10-01T12:25:15Z
2020-10-01T10:27:25Z,42.805,6.029,13.2982,4.60003,2470.063,2020-10-01T12:28:18Z
2020-10-01T10:30:28Z,42.805,6.029,13.2986,4.59997,2470.04,2020-10-01T12:31:21Z
2020-10-01T10:33:32Z,42.805,6.029,13.2983,4.60006,2470.063,2020-10-01T12:34:25Z
2020-10-01T10:36:35Z,42.805,6.029,13.3001,4.60031,2470.1,2020-10-01T12:37:28Z
2020-10-01T10:39:38Z,42.805,6.029,13.2980,4.60028,2470.063,2020-10-01T12:40:31Z
2020-10-01T10:42:41Z,42.805,6.029,13.2991,4.60009,2470.063,2020-10-01T12:43:34Z
2020-10-01T10:45:44Z,42.805,6.029,13.2990,4.60019,2470.077,2020-10-01T12:46:37Z
2020-10-01T10:48:47Z,42.805,6.029,13.2984,4.60004,2470.063,2020-10-01T12:49:40Z
2020-10-01T10:51:50Z,42.805,6.029,13.2987,4.60010,2470.04,2020-10-01T12:52:43Z
2020-10-01T10:54:53Z,42.805,6.029,13.2982,4.60004,2470.03,2020-10-01T12:55:46Z
2020-10-01T10:57:57Z,42.805,6.029,13.3009,4.60029,2470.04,2020-10-01T12:58:50Z
2020-10-01T11:01:00Z,42.805,6.029,13.2991,4.60003,2470.04,2020-10-01T13:01:53Z
2020-10-01T11:04:03Z,42.805,6.029,13.2984,4.60006,2470.063,2020-10-01T13:04:56Z
2020-10-01T11:07:06Z,42.805,6.029,13.2990,4.60033,2470.04,2020-10-01T13:07:59Z
2020-10-01T11:10:09Z,42.805,6.029,13.2990,4.60020,2470.03,2020-10-01T13:11:02Z
2020-10-01T11:13:12Z,42.805,6.029,13.2991,4.60016,2470.04,2020-10-01T13:14:05Z
2020-10-01T11:16:15Z,42.805,6.029,13.2992,4.60013,2470.03,2020-10-01T13:17:08Z
2020-10-01T11:19:18Z,42.805,6.029,13.2996,4.60025,2470.04,2020-10-01T13:20:11Z
2020-10-01T11:22:22Z,42.805,6.029,13.2983,4.60007,2470.053,2020-10-01T13:23:14Z
2020-10-01T11:25:25Z,42.805,6.029,13.2995,4.60016,2470.053,2020-10-01T13:26:18Z
2020-10-01T11:28:28Z,42.805,6.029,13.2981,4.60011,2470.053,2020-10-01T13:29:21Z
2020-10-01T11:31:31Z,42.805,6.029,13.2984,4.60011,2470.04,2020-10-01T13:32:24Z
2020-10-01T11:34:34Z,42.805,6.029,13.2985,4.60004,2470.063,2020-10-01T13:35:27Z
2020-10-01T11:37:37Z,42.805,6.029,13.2991,4.60007,2470.053,2020-10-01T13:38:30Z
2020-10-01T11:40:40Z,42.805,6.029,13.2981,4.60001,2470.04,2020-10-01T13:41:33Z
2020-10-01T11:43:43Z,42.805,6.029,13.2986,4.60008,2470.017,2020-10-01T13:44:36Z
2020-10-01T11:46:47Z,42.805,6.029,13.2981,4.60000,2470.04,2020-10-01T13:47:39Z
2020-10-01T11:49:50Z,42.805,6.029,13.2990,4.60013,2470.03,2020-10-01T13:50:43Z
2020-10-01T11:52:53Z,42.805,6.029,13.2994,4.60015,2470.053,2020-10-01T13:53:46Z
2020-10-01T11:55:56Z,42.805,6.029,13.2988,4.60005,2470.053,2020-10-01T13:56:49Z
2020-10-01T11:58:59Z,42.805,6.029,13.2983,4.60005,2470.053,2020-10-01T13:59:52Z
2020-10-01T12:02:02Z,42.805,6.029,13.2988,4.60010,2470.017,2020-10-01T14:02:55Z
2020-10-01T12:05:05Z,42.805,6.029,13.2990,4.60002,2470.017,2020-10-01T14:05:58Z
2020-10-01T12:08:08Z,42.805,6.029,13.2983,4.60000,2469.984,2020-10-01T14:09:01Z
2020-10-01T12:11:12Z,42.805,6.029,13.2986,4.60008,2470.03,2020-10-01T14:12:04Z
2020-10-01T12:14:15Z,42.805,6.029,13.2982,4.60003,2470.017,2020-10-01T14:15:08Z
2020-10-01T12:17:18Z,42.805,6.029,13.2992,4.60003,2469.993,2020-10-01T14:18:11Z
2020-10-01T12:20:21Z,42.805,6.029,13.2985,4.59999,2469.993,2020-10-01T14:21:14Z
2020-10-01T12:23:24Z,42.805,6.029,13.2986,4.60002,2470.03,2020-10-01T14:24:17Z
2020-10-01T12:26:27Z,42.805,6.029,13.2982,4.60014,2470.007,2020-10-01T14:27:20Z
2020-10-01T12:29:30Z,42.805,6.029,13.2983,4.60003,2469.993,2020-10-01T14:30:23Z
2020-10-01T12:32:33Z,42.805,6.029,13.2991,4.60004,2470.017,2020-10-01T14:33:26Z
2020-10-01T12:35:37Z,42.805,6.029,13.2990,4.59995,2469.993,2020-10-01T14:36:29Z
2020-10-01T12:38:40Z,42.805,6.029,13.2988,4.60005,2469.993,2020-10-01T14:39:33Z
2020-10-01T12:41:43Z,42.805,6.029,13.2981,4.60010,2470.017,2020-10-01T14:42:36Z
2020-10-01T12:44:46Z,42.805,6.029,13.2985,4.60012,2470.017,2020-10-01T14:45:39Z
2020-10-01T12:47:49Z,42.805,6.029,13.2982,4.60003,2469.993,2020-10-01T14:48:42Z
2020-10-01T12:50:52Z,42.805,6.029,13.2988,4.60003,2470.03,2020-10-01T14:51:45Z
2020-10-01T12:53:55Z,42.805,6.029,13.2991,4.60005,2469.993,2020-10-01T14:54:48Z
2020-10-01T12:56:58Z,42.805,6.029,13.2983,4.59998,2469.993,2020-10-01T14:57:51Z
2020-10-01T13:00:02Z,42.805,6.029,13.2990,4.60010,2469.993,2020-10-01T15:00:54Z
2020-10-01T13:03:05Z,42.805,6.029,13.2988,4.60003,2470.007,2020-10-01T15:03:58Z
2020-10-01T13:06:08Z,42.805,6.029,13.2981,4.59993,2470.007,2020-10-01T15:07:01Z
2020-10-01T13:09:11Z,42.805,6.029,13.2982,4.59996,2470.017,2020-10-01T15:10:04Z
2020-10-01T13:12:14Z,42.805,6.029,13.2982,4.59994,2470.007,2020-10-01T15:13:07Z
2020-10-01T13:15:17Z,42.805,6.029,13.2982,4.59989,2470.03,2020-10-01T15:16:10Z
2020-10-01T13:18:20Z,42.805,6.029,13.2981,4.60004,2469.993,2020-10-01T15:19:13Z
2020-10-01T13:21:23Z,42.805,6.029,13.2985,4.60004,2470.007,2020-10-01T15:22:16Z
2020-10-01T13:24:27Z,42.805,6.029,13.2983,4.59995,2470.007,2020-10-01T15:25:19Z
2020-10-01T13:27:30Z,42.805,6.029,13.2984,4.59997,2469.97,2020-10-01T15:28:23Z
2020-10-01T13:30:33Z,42.805,6.029,13.2981,4.60006,2470.04,2020-10-01T15:31:26Z
2020-10-01T13:33:36Z,42.805,6.029,13.2983,4.60014,2469.984,2020-10-01T15:34:29Z
2020-10-01T13:36:39Z,42.805,6.029,13.2987,4.60015,2470.017,2020-10-01T15:37:32Z
2020-10-01T13:39:42Z,42.805,6.029,13.2980,4.59997,2469.993,2020-10-01T15:40:35Z
2020-10-01T13:42:45Z,42.805,6.029,13.2984,4.59991,2470.03,2020-10-01T15:43:38Z
2020-10-01T13:45:48Z,42.805,6.029,13.2983,4.59991,2470.017,2020-10-01T15:46:41Z
2020-10-01T13:48:52Z,42.805,6.029,13.2984,4.59991,2469.984,2020-10-01T15:49:44Z
2020-10-01T13:51:55Z,42.805,6.029,13.2981,4.59991,2470.03,2020-10-01T15:52:48Z
2020-10-01T13:54:58Z,42.805,6.029,13.2984,4.59989,2469.993,2020-10-01T15:55:51Z
2020-10-01T13:58:01Z,42.805,6.029,13.2989,4.60011,2469.993,2020-10-01T15:58:54Z
2020-10-01T14:01:04Z,42.805,6.029,13.2990,4.59996,2470.017,2020-10-01T16:01:57Z
2020-10-01T14:04:07Z,42.805,6.029,13.2985,4.60007,2470.03,2020-10-01T16:05:00Z
2020-10-01T14:07:10Z,42.805,6.029,13.2980,4.59992,2470.007,2020-10-01T16:08:03Z
2020-10-01T14:10:13Z,42.805,6.029,13.2982,4.59994,2470.03,2020-10-01T16:11:06Z
2020-10-01T14:13:16Z,42.805,6.029,13.2988,4.60011,2469.993,2020-10-01T16:14:09Z
2020-10-01T14:16:20Z,42.805,6.029,13.2990,4.60020,2469.947,2020-10-01T16:17:13Z
2020-10-01T14:19:23Z,42.805,6.029,13.2984,4.59998,2470.04,2020-10-01T16:20:16Z
2020-10-01T14:22:26Z,42.805,6.029,13.2990,4.59997,2469.993,2020-10-01T16:23:19Z
2020-10-01T14:25:29Z,42.805,6.029,13.2985,4.59994,2469.984,2020-10-01T16:26:22Z
2020-10-01T14:28:32Z,42.805,6.029,13.2986,4.60010,2469.993,2020-10-01T16:29:25Z
2020-10-01T14:31:35Z,42.805,6.029,13.2983,4.60001,2469.993,2020-10-01T16:32:28Z
2020-10-01T14:34:38Z,42.805,6.029,13.2983,4.59989,2470.03,2020-10-01T16:35:31Z
2020-10-01T14:37:41Z,42.805,6.029,13.2979,4.59988,2470.017,2020-10-01T16:38:34Z
2020-10-01T14:40:45Z,42.805,6.029,13.2979,4.59989,2470.03,2020-10-01T16:41:38Z
2020-10-01T14:43:48Z,42.805,6.029,13.2982,4.59998,2470.017,2020-10-01T16:44:41Z
2020-10-01T14:46:51Z,42.805,6.029,13.2984,4.59994,2470.04,2020-10-01T16:47:44Z
2020-10-01T14:49:54Z,42.805,6.029,13.2981,4.59994,2470.03,2020-10-01T16:50:47Z
2020-10-01T14:52:57Z,42.805,6.029,13.2980,4.60003,2470.04,2020-10-01T16:53:50Z
2020-10-01T14:56:00Z,42.805,6.029,13.2981,4.59991,2470.017,2020-10-01T16:56:53Z
2020-10-01T14:59:03Z,42.805,6.029,13.2984,4.59991,2470.053,2020-10-01T16:59:56Z
2020-10-01T15:02:06Z,42.805,6.029,13.2983,4.59991,2470.053,2020-10-01T17:02:59Z